• Join FlightAware (Why Join?)
  • Login
  • US Flag 
03:51AM EDT


 

Airport Tracker/Info


-or-


 

Live Flight TrackerFlight Track Log ✈ EMD21 ✈ 16-Jun-2013 ✈ KPNC - KTUL

Flight Track Log - Related Links

Times and Time Zones

All times are in EDT time to prevent confusion due to time zone crossing. See the EMD21 flight status page for this flight to view local times or setup timezone preferences in your user account.

Time Position Orientation Groundspeed Altitude Reporting Facility
EDT Latitude Longitude Course Direction KTS MPH feet Rate Location/Type
05:03AM 36.6908 -97.0461 121° Southeast 145 167 3,200  Level Kansas City Center
05:04AM 36.6669 -96.9967 121° Southeast 161 185 4,600 1,440 Climbing Kansas City Center
05:05AM 36.6461 -96.9461 117° Southeast 164 189 6,100 1,200 Climbing Kansas City Center
05:06AM 36.6236 -96.8958 119° Southeast 166 191 7,000 420 Climbing Kansas City Center
05:07AM 36.5975 -96.8308 117° Southeast 202 232 7,000 -60 Level Kansas City Center
05:08AM 36.5708 -96.7664 117° Southeast 216 249 6,900 -60 Descending Kansas City Center
05:09AM 36.5400 -96.6950 118° Southeast 221 254 6,900  Level Kansas City Center
05:10AM 36.5117 -96.6253 117° Southeast 225 259 6,900  Level Kansas City Center
05:11AM 36.4814 -96.5550 118° Southeast 229 264 6,900  Level Kansas City Center
05:12AM 36.4508 -96.4858 119° Southeast 228 262 6,900  Level Kansas City Center
05:12AM 36.4425 -96.4669 119° Southeast 228 262 6,900  Level Kansas City Center
05:13AM 36.4206 -96.4172 119° Southeast 227 261 6,900  Level Kansas City Center
05:13AM 36.4139 -96.3978 113° Southeast 227 261 6,900  Level Kansas City Center
05:14AM 36.4061 -96.3389 99° East 234 269 6,900  Level Kansas City Center
05:15AM 36.3903 -96.2642 105° East 225 259 6,900 -180 Level Kansas City Center
05:15AM 36.3819 -96.2383 112° Southeast 231 266 6,700 -900 Descending Kansas City Center
05:16AM 36.3694 -96.1839 106° East 238 274 6,000 -1,020 Descending Kansas City Center
05:16AM 36.3644 -96.1550 102° East 252 290 5,700 -1,020 Descending Kansas City Center
05:17AM 36.3542 -96.0997 103° East 249 287 5,000 -1,020 Descending Kansas City Center
05:17AM 36.3472 -96.0717 107° East 249 287 4,700 -1,020 Descending Kansas City Center
05:18AM 36.3317 -96.0214 111° Southeast 244 281 4,000 -1,200 Descending Kansas City Center
05:18AM 36.3219 -95.9972 117° Southeast 232 267 3,500 -1,320 Descending Kansas City Center
05:19AM 36.3019 -95.9528 119° Southeast 231 266 2,700 -1,200 Descending Kansas City Center
05:19AM 36.2894 -95.9339 129° Southeast 213 245 2,300 -720 Descending Kansas City Center
05:20AM 36.2689 -95.9050 131° Southeast 201 231 2,000 -720 Descending Kansas City Center
05:20AM 36.2550 -95.8997 163° South 139 160 1,600 -1,020 Descending Kansas City Center
05:21AM 36.2322 -95.8958 172° South 158 182 1,000 -720 Descending Kansas City Center
05:21AM 36.2214 -95.8989 193° South 104 120 900 -300 Descending Kansas City Center
05:22AM 36.1997 -95.8992 181° South 135 155 700 -300 Descending Kansas City Center
05:24AM 36.1984 -95.8881 130° Southeast  Level Estimated
05:31AM 36.1984 -95.8881 130° Southeast  Level Estimated